Flag for U.S.A. Weather past 2 weeks in Fullerton, California, U.S.A.

Now
65 °F

Clear.


Feels Like: 65 °F
Forecast: 59 / 83 °F
Wind: No wind

Location: Fullerton Municipal Airport

Current Time: Oct 21, 2014 at 11:26:02 PM

Latest Report: Oct 21, 2014 at 10:53 PM


Visibility: 10 mi

Pressure: 29.87 "Hg

Humidity: 76%

Dew point: 57 °F

Location of FullertonLocation

Historic Weather in Fullerton — Graph

°F

Fullerton temperature yesterday

Maximum temperature yesterday: 79 °F (at 2:53 PM)
Minimum temperature yesterday: 63 °F (at 4:53 AM)
Average temperature yesterday: 70 °F

Past Weeks' High & Low Weather Summary

 TemperatureHumidityPressure
High95 °F (Oct 7, 1:53 PM)87% (Oct 13, 3:53 AM)30.01 "Hg (Oct 13, 3:53 AM)
Low60 °F (Oct 19, 6:53 AM)10% (Oct 7, 12:53 PM)29.78 "Hg (Oct 8, 4:53 PM)
Average71 °F66%29.90 "Hg
* Reported Oct 6 9:53 PM — Oct 21 9:53 PM, Fullerton, Weather by CustomWeather, © 2014

Note: Actual official high and low records may vary slightly from our data, if they occured in-between our weather recording intervals... More about our weather records

Advertising

Fullerton weather history for previous 24 hours

 ConditionsComfort  
Time TempWeatherWind HumidityBarometerVisibility
9:53 PM
Oct 21
66 °FClear.No wind70%29.86 "Hg10 mi
8:53 PM68 °FClear.No wind70%29.85 "Hg10 mi
7:53 PM71 °FClear.No wind66%29.84 "Hg10 mi
6:53 PM72 °FSunny.5 mph64%29.83 "Hg10 mi
5:53 PM75 °FSunny.No wind54%29.81 "Hg10 mi
4:53 PM77 °FSunny.7 mph50%29.82 "Hg10 mi
3:53 PM77 °FSunny.8 mph54%29.82 "Hg10 mi
2:53 PM78 °FSunny.7 mph54%29.82 "Hg9 mi
1:53 PM80 °FSunny.3 mph45%29.83 "Hg9 mi
12:53 PM76 °FSunny.5 mph56%29.87 "Hg6 mi
11:53 AM73 °FScattered clouds.No wind62%29.90 "Hg5 mi
10:53 AM69 °FOvercast.No wind70%29.91 "Hg5 mi
9:53 AM67 °FOvercast.No wind79%29.92 "Hg5 mi
8:53 AM66 °FOvercast.3 mph81%29.92 "Hg5 mi
7:53 AM66 °FOvercast.3 mph81%29.90 "Hg5 mi
6:53 AM66 °FOvercast.No wind81%29.89 "Hg8 mi
5:53 AM66 °FOvercast.5 mph81%29.88 "Hg10 mi
5:02 AM67 °FOvercast.No wind81%29.89 "Hg10 mi
4:53 AM67 °FOvercast.No wind79%29.88 "Hg10 mi
3:53 AM65 °FOvercast.No wind85%29.88 "Hg10 mi
2:53 AM66 °FPassing clouds.7 mph81%29.87 "Hg10 mi
1:53 AM67 °FOvercast.3 mph81%29.90 "Hg10 mi
12:53 AM66 °FPassing clouds.No wind81%29.90 "Hg10 mi
11:53 PM
Oct 20
66 °FClear.3 mph81%29.89 "Hg10 mi
Weather by CustomWeather, © 2014

See weather overviewHow to use our weather pages